Torna al catalogo

STARLINK-4127

AttivoComunicazioniVLEO
NORAD 53258·PAYLOAD·🇺🇸 United States

Lanciato Jul 24, 2022 da Cape Canaveral Space Force Station

Loading…

Prossimi Passaggi (prossime 24 ore)

TLE

AggiornatoSource: CelesTrak SupGP

Epoca: Sep 14, 2026, 13:52 UTC

1 53258C 22086S   26257.57826389 -.00060210  00000+0 -19364-2 0  2573
2 53258  53.1593  61.3682 0001132  92.2015 114.6586 15.31728594    10

Traccia STARLINK-4127 in tempo reale con AllMySat

Download on the App Store